Flag for Senegal Weather past 2 weeks in Dakar, Senegal

Now
68 °F

Clear.


Feels Like: 68 °F
Forecast: 69 / 85 °F
Wind: 15 mph from North

Location: Dakar / Yoff

Current Time: Mar 29, 2015 at 3:23:56 AM

Latest Report: Mar 29, 2015 at 3:00 AM


Visibility: 10 mi

Pressure: 29.92 "Hg

Humidity: 69%

Dew point: 57 °F

Location of DakarLocation

Historic Weather in Dakar — Graph

°F

Dakar temperature yesterday

Maximum temperature yesterday: 79 °F (at 3:00 PM)
Minimum temperature yesterday: 66 °F (at 6:00 AM)
Average temperature yesterday: 72 °F

Past Weeks' High & Low Weather Summary

 TemperatureHumidityPressure
High82 °F (Mar 14, 2:00 PM)100% (Mar 24, 2:30 PM)32.78 "Hg (Mar 24, 2:30 PM)
Low50 °F (Mar 24, 2:30 PM)30% (Mar 14, 2:00 PM)29.74 "Hg (Mar 14, 4:30 AM)
Average69 °F74%29.89 "Hg
* Reported Mar 14 2:00 AM — Mar 29 2:00 AM, Dakar, Weather by CustomWeather, © 2015

Note: Actual official high and low records may vary slightly from our data, if they occured in-between our weather recording intervals... More about our weather records

Advertising

Dakar weather history for previous 24 hours

 ConditionsComfort  
Time TempWeatherWind HumidityBarometerVisibility
2:00 AM
Sun, Mar 29
70 °FClear.15 mph64%29.95 "Hg10 mi
1:30 AM70 °FClear.15 mph64%29.95 "Hg10 mi
1:00 AM72 °FClear.14 mph61%29.95 "Hg10 mi
12:30 AM72 °FClear.14 mph61%29.95 "Hg10 mi
12:00 AM72 °FClear.13 mph61%29.95 "Hg10 mi
11:30 PM
Sat, Mar 28
70 °FClear.13 mph69%29.95 "Hg10 mi
11:00 PM72 °FClear.13 mph65%29.95 "Hg10 mi
10:30 PM70 °FClear.13 mph69%29.95 "Hg10 mi
10:00 PM72 °FClear.14 mph65%29.95 "Hg10 mi
9:30 PM72 °FClear.14 mph65%29.92 "Hg10 mi
9:00 PM72 °FClear.14 mph65%29.92 "Hg10 mi
8:30 PM72 °FClear.13 mph69%29.92 "Hg10 mi
8:00 PM72 °FClear.12 mph69%29.89 "Hg10 mi
7:30 PM72 °FClear.13 mph69%29.89 "Hg10 mi
7:00 PM73 °FSunny.13 mph65%29.89 "Hg10 mi
6:30 PM75 °FSunny.12 mph61%29.89 "Hg10 mi
6:00 PM75 °FSunny.12 mph61%29.89 "Hg10 mi
5:30 PM77 °FSunny.12 mph57%29.86 "Hg10 mi
5:00 PM79 °FSunny.12 mph51%29.89 "Hg10 mi
4:30 PM79 °FSunny.12 mph48%29.89 "Hg10 mi
4:00 PM79 °FSunny.13 mph45%29.89 "Hg10 mi
3:30 PM79 °FSunny.13 mph45%29.89 "Hg10 mi
3:00 PM79 °FSunny.13 mph45%29.89 "Hg10 mi
2:30 PM77 °FSunny.13 mph44%29.92 "Hg10 mi
2:00 PM75 °FSunny.12 mph50%29.92 "Hg10 mi
1:30 PM77 °FPassing clouds.12 mph47%29.95 "HgN/A
1:00 PM77 °FSunny.12 mph47%29.95 "Hg10 mi
12:30 PM75 °FSunny.16 mph50%29.98 "Hg10 mi
10:00 AM72 °FSunny.15 mph61%30.01 "Hg10 mi
9:30 AM70 °FSunny.15 mph64%29.98 "Hg10 mi
9:00 AM68 °FSunny.15 mph69%29.98 "Hg10 mi
8:30 AM68 °FSunny.15 mph69%29.98 "Hg10 mi
8:00 AM66 °FSunny.13 mph73%29.98 "Hg10 mi
7:30 AM66 °FSunny.13 mph73%29.95 "Hg10 mi
7:00 AM68 °FClear.14 mph69%29.95 "Hg10 mi
6:30 AM66 °FClear.13 mph73%29.95 "Hg10 mi
6:00 AM66 °FClear.13 mph73%29.95 "Hg10 mi
5:30 AM68 °FClear.12 mph73%29.95 "Hg10 mi
5:00 AM68 °FClear.12 mph73%29.95 "Hg10 mi
4:30 AM68 °FClear.10 mph73%29.95 "Hg10 mi
4:00 AM68 °FClear.12 mph69%29.92 "Hg10 mi
3:30 AM70 °FClear.12 mph64%29.95 "Hg10 mi
3:00 AM70 °FClear.10 mph64%29.95 "Hg10 mi
Weather by CustomWeather, © 2015

See weather overviewHow to use our weather pages